www.pogodaiklimat.ru

Погода и климат >> Архив погоды >> Канада >> Британская Колумбия >> Ванкувер аэропорт


АРХИВ ПОГОДЫ в Ванкувер аэропорту

Время (UTC), дата Ветер
(напр.,м/с)
 
Видим.   Явления Облачность Т
(С)
Тd
(С)
f
(%)
Тe
(С)
Тes
(С)
Комфортность P
(гПа)
Po
(гПа)
Тmin
(С)
Tmax
(С)
R
(мм)
R24
(мм)
S
(см)
03 15.07 Ю 3 45 км 9/0
[]
+20.2 +13.2 64 +23 +23 комфорт 1017.7 1017.2
06 15.07 С 1 30 км 10/0
[Cs]
+17.4 +13.1 76 +19 +19 тепло 1017.9 1017.4 +14.0 +23.5 22
09 15.07 С 2 30 км 9/0
[]
+16.7 +12.9 78 +17 +17 тепло 1017.7 1017.2
12 15.07 С 1 30 км 3/0
[Ac As Cs]
+15.1 +13.7 91 +16 +16 тепло 1017.6 1017.1 +14.0 +23.5
15 15.07 ЮЗ 1 24 км 4/4 300 м
[]
+19.1 +14.6 75 +21 +24 комфорт 1018.1 1017.6
18 15.07 ЮЗ 3 45 км 8/1 1000 м
[Cu med, cong Ac As Cs]
+20.4 +15.4 73 +23 +30 комфорт 1017.9 1017.4 +14.0 +21.1
21 15.07 ЮЗ 5 45 км 8/8 1500 м
[]
+22.4 +15.2 64 +26 +28 жарко 1017.2 1016.7
00 16.07 ЮЗ 4 45 км 4/1 1500 м
[Cu med, cong Ac As Cs]
+23.0 +14.1 57 +26 +30 жарко 1016.5 1016.0 +14.0 +23.7
03 16.07 ЮВ 3 45 км 4/4 1000 м
[]
+21.6 +12.7 57 +24 +24 комфорт 1016.5 1016.0
06 16.07 В 5 30 км 4/0
[Ac trans]
+17.4 +13.3 77 +17 +17 по сезону 1016.6 1016.1 +14.0 +23.7 22
09 16.07 В 4 30 км ясно +16.3 +12.9 80 +16 +16 по сезону 1016.4 1015.9
12 16.07 В 3 45 км 3/0
[Ac As Cs]
+14.8 +12.2 84 +14 +14 по сезону 1016.4 1015.9 +14.6 +23.7
15 16.07 В 4 45 км 6/6 1000 м
[]
+17.8 +13.3 75 +18 +19 тепло 1016.7 1016.2
18 16.07 ЮВ 4 45 км 6/1 1000 м
[Cu med, cong Ac As Cs]
+21.8 +14.1 62 +25 +31 комфорт 1016.4 1015.9 +14.5 +22.1
21 16.07 Ю 5 45 км 6/6 600 м
[]
+22.2 +16.7 71 +27 +30 душно 1015.3 1014.8
00 17.07 ЮЗ 4 45 км 10/1 1000 м
[Cu med, cong Ac trans Cs]
+23.0 +15.7 63 +27 +30 душно 1013.8 1013.3 +14.5 +24.2
03 17.07 ЮВ 4 45 км 10/10 1000 м
[]
+22.1 +12.1 53 +24 +24 комфорт 1012.9 1012.4
06 17.07 ЮВ 3 30 км 10/1 1500 м
[Sc Ac As]
+19.8 +12.5 63 +22 +22 комфорт 1011.9 1011.4 +14.5 +24.2 22
09 17.07 Ю 6 24 км 10/10 1000 м
[]
+18.7 +13.3 71 +19 +19 тепло 1011.3 1010.8
12 17.07 В 5 16 км слаб. дождь 10/9 1000 м
[Sc Ac As]
+15.1 +14.1 94 +14 +14 по сезону 1010.6 1010.1 +15.1 +24.2 2
15 17.07 В 7 4800 м 9/9 100 м
[]
+14.7 +14.0 96 +13 +13 прохладно 1010.1 1009.6
18 17.07 ЮВ 7 24 км в посл. час дождь 10/10 200 м
[Cu Sc]
+16.5 +14.7 89 +15 +15 прохладно 1009.3 1008.8 +14.7 +19.9 5
21 17.07 ЮВ 8 24 км 10/10 300 м
[]
+19.1 +15.0 77 +20 +20 по сезону 1009.6 1009.1
00 18.07 Ю 6 24 км 8/5 300 м
[Cu Sc Ac As]
+21.2 +14.6 66 +24 +25 комфорт 1009.1 1008.6 +14.7 +21.7
03 18.07 Ю 7 30 км 3/3 600 м
[]
+19.6 +14.1 71 +21 +21 комфорт 1009.1 1008.6
06 18.07 З 9 30 км 1/1 1000 м
[Sc Ac As]
+17.6 +12.9 74 +16 +16 по сезону 1010.2 1009.7 +14.7 +22.5 61
09 18.07 З 10 30 км ясно +16.0 +12.3 79 +14 +14 по сезону 1011.9 1011.4
12 18.07 З 11 30 км 3/1 1500 м
[Sc Ac As]
+15.5 +11.8 79 +13 +13 по сезону 1013.3 1012.8 +15.5 +22.5
15 18.07 З 9 45 км 1/1 600 м
[]
+16.9 +12.1 73 +15 +16 по сезону 1014.8 1014.3
18 18.07 З 8 45 км 1/1 600 м
[Cu Sc Ac As Cs]
+19.4 +10.6 57 +20 +22 тепло 1015.7 1015.2 +15.2 +19.4
21 18.07 ЮЗ 5 45 км 6/6 1500 м
[]
+19.9 +10.6 55 +21 +25 комфорт 1016.5 1016.0
00 19.07 ЮЗ 5 45 км 5/3 1500 м
[Cu Sc Ac As Cs]
+20.0 +8.8 48 +21 +23 комфорт 1016.2 1015.7 +15.2 +21.1
03 19.07 СЗ 8 45 км 6/6 1000 м
[]
+16.8 +12.6 76 +15 +15 прохладно 1016.3 1015.8
06 19.07 З 10 30 км 10/0
[Ac As]
+15.5 +10.4 72 +13 +13 прохладно 1016.5 1016.0 +15.2 +21.1 101
09 19.07 З 8 30 км 3/3 600 м
[]
+14.6 +11.1 80 +12 +12 прохладно 1016.9 1016.4
12 19.07 СЗ 6 30 км 3/3 300 м
[Sc]
+13.7 +10.2 79 +12 +12 по сезону 1017.8 1017.3 +13.7 +21.1
15 19.07 СЗ 7 45 км 1/1 600 м
[]
+15.7 +9.9 68 +14 +15 прохладно 1019.2 1018.7
18 19.07 З 6 45 км 4/4 600 м
[Cu hum]
+17.4 +11.9 70 +17 +20 по сезону 1020.6 1020.1 +13.6 +17.9
21 19.07 З 4 45 км 1/1 1000 м
[]
+18.9 +9.1 53 +19 +29 по сезону 1020.9 1020.4
00 20.07 ЮЗ 3 45 км ясно +19.1 +9.1 52 +20 +27 по сезону 1020.9 1020.4 +13.6 +19.7
03 20.07 З 2 45 км ясно +17.9 +9.4 58 +18 +19 по сезону 1020.0 1019.5
06 20.07 С 2 30 км ясно +14.4 +10.1 75 +14 +14 прохладно 1020.0 1019.5 +13.6 +19.7 91
09 20.07 В 1 30 км ясно +14.6 +8.9 69 +15 +15 по сезону 1019.9 1019.4
12 20.07 В 2 45 км ясно +13.1 +8.8 75 +13 +13 по сезону 1020.3 1019.8 +10.7 +19.7
15 20.07 ЮВ 2 45 км 1/1 600 м
[]
+16.0 +10.2 68 +16 +19 по сезону 1020.6 1020.1
18 20.07 З 3 45 км ясно +18.6 +12.8 69 +19 +30 по сезону 1020.5 1020.0 +10.4 +19.1
21 20.07 З 4 45 км 4/4 1000 м
[]
+20.6 +13.7 65 +23 +30 комфорт 1019.6 1019.1
00 21.07 З 4 45 км 4/1 1500 м
[Cu hum Cs]
+21.4 +12.4 56 +24 +28 комфорт 1018.1 1017.6 +10.4 +22.8
03 21.07 З 3 45 км 3/0
[]
+19.9 +14.6 72 +22 +23 комфорт 1016.3 1015.8
06 21.07 СЗ 2 45 км 1/0
[Cs]
+16.0 +15.0 94 +16 +16 по сезону 1015.8 1015.3 +10.4 +22.8 19
09 21.07 В 2 45 км ясно +15.2 +11.8 80 +15 +15 по сезону 1015.6 1015.1
12 21.07 С 1 45 км ясно +15.6 +9.7 68 +17 +17 тепло 1015.5 1015.0 +11.6 +22.8
15 21.07 С 1 45 км ясно +19.0 +11.2 61 +21 +26 комфорт 1016.3 1015.8
18 21.07 ЮЗ 3 45 км ясно +21.5 +13.5 60 +24 +35 комфорт 1016.3 1015.8 +11.6 +21.9
21 21.07 З 3 45 км ясно +24.3 +14.9 56 +27 +40 жарко 1015.7 1015.2
00 22.07 ЮЗ 2 45 км 1/1 1500 м
[Cu hum Ac lent Cs]
+28.5 +7.2 26 +28 +35 жарко 1014.0 1013.5 +11.6 +28.5

 

Местоположение метеостанции Ванкувер аэропорт (Британская Колумбия, Канада): широта 49.20 долгота -123.10 высота над уровнем моря 4 м.

В архиве по умолчанию представлена погода в Ванкувер аэропорту за последнюю неделю. Архивные данные за месяц целиком и за предыдущие месяцы, начиная с января 2011 года, Вы можете получить, выбрав интересующий диапазон дат из раскрывающегося списка и нажав кнопку "Ввод!".


*Определитесь, кто Вы:
робот инопланетянин человек

Внимание! Время в таблицах - всемирное. Для получения местного времени необходимо прибавить поправку, которая равна -8 ч.

Смотрите также архив погоды в соседних городах и на ближайших метеорологических станциях:

Погода в Ричмонде (Британская Колумбия, Канада) (3 км)
Погода в Ванкувер Хиллкрест (Британская Колумбия, Канада) (3 км)
Погода в Ванкувере Си Айленд (Британская Колумбия, Канада) (7 км)
Погода в Ванкувере (Британская Колумбия, Канада) (11 км)
Погода на Западе Ванкувер (Британская Колумбия, Канада) (14 км)
Погода в Пойнт Аткинсон (Британская Колумбия, Канада) (17 км)
Погода на Сэнд Хеадс (Британская Колумбия, Канада) (18 км)
Погода в Слейв Лейк (Альберта, Канада) (21 км)
Погода в Форт-МакМеррее 2 (Альберта, Канада) (23 км)
Погода на Пэм Рок (Британская Колумбия, Канада) (32 км)

Пояснения к столбцам:

Ветер - указаны скорость ветра в м/с - средняя за 10 мин, порывы в срок и между сроками (в фигурных скобках) и направление, откуда дует ветер: С - северный, СВ - северо-восточный, В - восточный, ЮВ - юго-восточный, Ю - южный, ЮЗ - юго-западный, З - западный, СЗ - северо-западный.
Видимость - горизонтальная дальность видимости в метрах или километрах. При видимости от 1 до 10 км при отсутствии осадков обычно наблюдается дымка, при ухудшении видимости до 1 км и менее - туман. В сухую погоду видимость может ухудшаться дымом, пылью или мглою.
Явления - указаны атмосферные явления, наблюдавшиеся в срок или в последний час перед сроком; фигурными скобками обозначены явления, наблюдавшиеся между сроками (за 1-3 часа до срока); квадратными скобками обозначены град или гололедные отложения с указанием их диаметра в мм.
Облачность - указаны через наклонную черту общая и нижняя облачность в баллах и высота нижней границы облаков в метрах; квадратными скобками обозначены формы облаков: Ci - перистые, Cs - перисто-слоистые, Cc - перисто-кучевые, Ac - высококучевые, As - высокослоистые, Sc - слоисто-кучевые, Ns - слоисто-дождевые, Cu - кучевые, Cb - кучево-дождевые. Подробнее классификацию облаков см. в Атласе облаков (PDF).
T - Температура воздуха - температура, измеренная на высоте 2 м над землей.
Td - Температура точки росы - температура, при понижении до которой содержащийся в воздухе водяной пар достигнет насыщения.
f - Относительная влажность воздуха - влажноcть воздуха, измеренная на высоте 2 м над землей.
Te - Эффективная температура - температура, которую ощущает одетый по сезону человек в тени. Характеристика душности погоды. При расчете учитывается влияние влажности воздуха и скорости ветра на теплоощущения человека.
Tes - Эффективная температура на солнце - температура, которую ощущает человек, с поправкой на солнечный нагрев. Характеристика знойности погоды. Зависит от высоты солнца над горизонтом, облачности и скорости ветра. Ночью, в пасмурную погоду, а также при ветре 12 м/с и более поправка равна нулю.
P - Атмосферное давление - приведенное к уровню моря атмосферное давление.
Po - Атмосферное давление - измеренное на уровне метеостанции атмосферное давление.
Tmin - Минимальная температура - минимум температуры воздуха на высоте 2 м над землей.
Tmax - Максимальная температура - максимум температуры воздуха на высоте 2 м над землей.
R - Количество осадков - Количество выпавших осадков за период времени, мм. При наведении курсора мыши на число - период времени, за который выпало указанное количество осадков.
R24 - Количество осадков - Количество выпавших осадков за 24 часа, мм.
S - Снежный покров - Высота снежного покрова, см. При наведении курсора мыши на число - состояние снежного покрова и степень покрытия местности в баллах.